SCP
0 0 0 0 0 0 0 0 0 0 0 0 0 0 0 0 0 0 0 0 0 0 0 0 0 0 0 0 0 0 0 0 0 0 0 0 0 0 0 0 0 0 0
0 0 0 0 0 0 0 0 0 0 0 0 0 0 0 0 0 0 0 0 0 0 0 0 0 0 0 0 0 0 0 0 0 0 0 0 0 0 0 0 0 0 0
0 0 0 0 0 0 0 0 0 0 0 0 0 0 0 0 0 0 0 0 0 0 0 0 0 0 0 0 0 0 0 0 0 0 0 0 0 0 0 0 0 0 0
0 0 0 0 0 0 0 0 0 0 0 0 0 0 0 0 0 0 0 0 0 0 0 0 0 0 0 0 0 0 0 0 0 0 0 0 0 0 0 0 0 0 0
0 0 0 0 0 0 0 0 0 0 0 0 0 0 0 0 0 0 0 0 0 0 0 0 0 0 0 0 0 0 0 0 0 0 0 0 0 0 0 0 0 0 0
0 0 0 0 0 0 0 0 0 0 0 0 0 0 0 0 0 0 0 0 0 0 0 0 0 0 0 0 0 0 0 0 0 0 0 0 0 0 0 0 0 0 0
0 0 0 0 0 0 0 0 0 0 0 0 0 0 0 0 0 0 0 0 0 0 0 0 0 0 0 0 0 0 0 0 0 0 0 0 0 0 0 0 0 0 0
0 0 0 0 0 0 0 0 0 0 0 0 0 0 0 0 0 0 0 0 0 0 0 0 0 0 0 0 0 0 0 0 0 0 0 0 0 0 0 0 0 0 0
0 0 0 0 0 0 0 0 0 0 0 0 0 0 0 0 0 0 0 0 0 0 0 0 0 0 0 0 0 0 0 0 0 0 0 0 0 0 0 0 0 0 0
0 0 0 0 0 0 0 0 0 0 0 0 0 0 0 0 0 0 0 0 0 0 0 0 0 0 0 0 0 0 0 0 0 0 0 0 0 0 0 0 0 0 0
0 0 0 0 0 0 0 0 0 0 0 0 0 0 0 0 0 0 0 0 0 0 0 0 0 0 0 0 0 0 0 0 0 0 0 0 0 0 0 0 0 0 0
0 0 0 0 0 0 0 0 0 0 0 0 0 0 0 0 0 0 0 0 0 0 0 0 0 0 0 0 0 0 0 0 0 0 0 0 0 0 0 0 0 0 0
0 0 0 0 0 0 0 0 0 0 0 0 0 0 0 0 0 0 0 0 0 0 0 0 0 0 0 0 0 0 0 0 0 0 0 0 0 0 0 0 0 0 0
0 0 0 0 0 0 0 0 0 0 0 0 0 0 0 0 0 0 0 0 0 0 0 0 0 0 0 0 0 0 0 0 0 0 0 0 0 0 0 0 0 0 0
0 0 0 0 0 0 0 0 0 0 0 0 0 0 0 0 0 0 0 0 0 0 0 0 0 0 0 0 0 0 0 0 0 0 0 0 0 0 0 0 0 0 0
0 0 0 0 0 0 0 0 0 0 0 0 0 0 0 0 0 0 0 0 0 0 0 0 0 0 0 0 0 0 0 0 0 0 0 0 0 0 0 0 0 0 0
0 0 0 0 0 0 0 0 0 0 0 0 0 0 0 0 0 0 0 0 0 0 0 0 0 0 0 0 0 0 0 0 0 0 0 0 0 0 0 0 0 0 0
-0 0 0 0 0 0 0 0 0 0 0 0 0 0 0 0 0 0 0 0 0 0 0 0 0 0 0 0 0 0 0 0 0 0 0 0 0 0 0 0 0 0 0
-0 -0 -0 0 0 0 0 0 0 0 0 0 0 0 0 0 0 0 0 0 0 0 0 0 0 0 0 0 0 0 0 0 0 0 0 0 0 0 0 0 0 0 0
-0 -0 0 0 0 0 0 0 0 0 0 0 0 0 0 0 0 0 0 0 0 0 0 0 0 0 0 0 0 0 0 0 0 0 0 0 0 0 0 0 0 0 0
0 0 0 0 0 0 0 0 0 0 0 0 0 0 0 0 0 0 0 0 0 0 0 0 0 0 0 0 0 0 0 0 0 0 0 0 0 0 0 0 0 0 0
0 0 0 0 -0 0 0 0 0 0 0 0 0 0 0 0 0 0 0 0 0 0 0 0 0 0 0 0 0 0 0 0 0 0 0 0 0 0 0 0 0 0 0
0 0 -0 -0 -0 0 0 0 0 0 0 0 0 0 0 0 0 0 0 0 0 0 0 0 0 0 0 0 0 0 0 0 0 0 0 0 0 0 0 0 0 0 0
0 0 0 0 0 0 0 -0 -0 0 0 0 0 0 0 0 0 0 0 0 0 0 0 0 0 0 0 0 0 0 0 0 0 0 0 0 0 0 0 0 0 0 0
0 0 0 0 0 0 0 -0 -0 0 0 0 -0 -0 0 0 0 0 0 0 0 0 0 0 0 0 0 0 0 0 0 0 0 0 0 0 0 0 0 0 0 0 0
0 0 0 0 0 0 0 -0 -0 0 0 0 -0 -0 0 0 0 0 0 0 0 0 0 0 0 0 0 0 0 0 0 0 0 0 0 0 0 0 0 0 0 0 0
Wind_Speed
2 2 1 1 2 2 2 2 2 3 3 2 3 3 3 2 3 4 3 6 7 6 6 5 5 5 5 6 6 7 8 9 9 10 11 12 12 12 12 13 13 13 13
3 3 2 2 2 2 2 2 3 2 2 2 3 3 3 2 3 4 4 4 6 5 5 5 6 5 6 6 6 7 8 8 9 9 10 11 12 12 12 13 13 12 13
4 4 3 3 2 3 3 3 4 3 2 2 2 2 3 3 3 3 3 4 4 4 5 5 5 5 6 6 6 7 7 7 8 8 9 10 11 11 12 12 12 12 13
5 4 3 3 3 3 3 2 3 3 3 3 2 2 3 3 3 2 2 3 3 3 4 5 5 5 5 5 6 6 6 7 7 7 8 9 9 10 10 10 11 12 12
6 4 3 3 4 3 3 4 3 2 3 2 1 2 2 3 2 3 3 3 3 3 3 4 4 4 4 5 5 5 5 6 6 6 7 7 8 8 9 9 10 10 11
5 4 3 5 4 3 3 3 3 3 2 2 2 3 2 2 2 3 3 3 2 2 3 4 3 3 4 4 4 5 5 5 5 5 6 6 6 7 7 8 8 9 9
4 3 3 3 3 3 4 4 3 4 3 2 3 3 2 3 3 2 2 2 3 2 2 3 2 2 2 4 4 5 5 5 5 5 5 5 5 6 6 6 7 7 8
5 4 4 3 3 3 4 4 4 3 3 3 2 2 2 3 4 2 2 2 2 2 2 3 2 2 2 2 3 5 5 5 4 4 4 4 4 5 5 5 5 6 6
5 5 5 3 3 3 3 3 4 4 3 3 3 2 2 1 2 3 3 3 3 2 2 2 3 3 3 3 3 4 5 5 4 4 3 3 3 4 4 4 4 5 5
4 4 4 4 4 4 4 4 4 3 3 3 3 2 2 2 1 1 3 3 3 3 3 3 4 4 4 4 4 5 5 5 5 4 3 3 2 2 3 3 3 3 4
3 3 3 3 4 3 4 4 4 4 3 3 2 2 3 2 2 2 1 2 3 3 3 3 3 3 4 4 3 5 6 5 5 5 3 3 2 1 2 2 2 2 3
2 3 3 4 4 3 4 3 3 4 3 4 3 3 2 2 2 2 1 1 1 2 3 3 3 3 3 4 5 6 5 5 5 5 5 4 3 1 1 1 1 1 2
2 3 4 3 3 3 3 3 3 3 3 4 3 3 3 3 2 2 2 1 1 1 2 2 2 2 3 3 3 5 4 5 4 4 5 4 4 4 3 1 0 1 2
3 3 3 3 3 4 4 4 3 3 4 4 4 4 3 3 3 3 2 2 2 2 2 2 2 3 3 3 3 2 2 4 4 4 4 4 4 4 4 3 2 1 1
3 4 3 3 2 3 4 4 4 4 4 4 4 4 3 3 3 3 3 2 2 1 1 2 2 3 2 2 2 1 2 2 3 3 2 3 3 3 3 3 3 2 2
3 2 1 2 3 3 3 4 3 3 3 2 2 4 4 3 3 3 3 3 2 2 1 1 1 1 2 2 2 2 1 2 1 1 1 2 2 3 3 3 4 3 3
3 2 2 3 3 4 4 4 3 4 4 3 4 4 4 4 3 3 3 3 3 3 2 2 2 2 2 3 2 2 0 1 1 1 1 0 1 1 2 3 3 3 2
2 3 3 3 4 4 4 4 3 3 3 3 4 4 4 4 4 4 3 4 3 2 2 2 2 2 3 2 2 3 2 1 0 2 2 2 2 2 2 2 3 3 3
2 2 3 3 4 4 4 3 2 2 3 3 4 5 5 5 4 3 4 4 3 3 2 2 2 2 2 2 2 3 3 2 2 0 2 2 3 3 3 3 3 4 4
2 3 3 4 5 6 5 5 4 3 3 4 5 5 5 5 4 4 4 4 4 3 3 2 2 2 2 3 2 2 3 3 3 3 2 1 3 4 5 5 4 4 4
3 3 4 5 5 5 5 6 5 4 4 3 4 4 5 5 6 4 3 3 4 3 3 2 2 3 3 3 3 3 3 3 3 2 2 2 2 2 3 5 5 5 5
3 4 4 5 5 5 6 8 6 4 3 3 3 3 3 4 4 4 4 4 3 2 2 2 2 3 3 3 3 4 3 3 4 3 3 4 3 2 2 1 3 4 4
3 3 3 4 4 4 5 6 7 4 3 3 3 3 3 5 5 4 4 3 3 3 2 1 2 2 2 3 3 4 4 3 4 4 3 4 3 3 3 3 4 4 4
3 3 3 3 3 3 3 3 6 3 2 2 3 3 4 5 6 5 4 4 2 2 2 1 1 1 1 2 2 3 4 4 4 3 2 2 3 3 4 3 5 5 5
4 3 3 3 3 3 2 1 3 2 1 1 3 4 4 4 6 8 5 4 4 3 3 4 4 4 5 5 3 2 3 3 4 4 3 2 3 4 4 3 3 5 7
3 3 3 2 3 3 3 1 1 1 1 0 2 3 5 4 4 6 4 4 4 4 5 5 4 4 4 4 3 1 1 1 3 4 3 3 3 4 4 4 3 4 5
Wind_Direction
36 14 77 48 27 10 7 332 341 19 4 15 30 45 39 52 87 93 107 113 112 107 102 93 82 76 75 72 71 67 65 64 60 55 52 49 46 50 51 53 61 70 83
50 23 36 41 27 9 1 352 7 16 10 24 26 26 46 36 78 104 123 115 109 105 102 97 92 82 78 78 76 74 71 70 65 59 57 56 54 55 56 56 64 74 85
55 38 25 20 11 11 15 13 9 5 16 32 34 46 64 38 60 82 114 126 120 109 105 97 91 86 79 82 79 77 74 75 71 66 62 62 60 58 58 57 62 73 81
63 47 15 12 26 20 11 20 25 9 13 26 24 29 54 48 51 61 80 114 125 128 119 108 94 85 81 84 83 80 78 81 80 74 69 67 66 63 62 62 63 71 78
47 46 19 22 24 30 14 17 30 14 19 14 21 71 57 64 42 46 49 76 90 114 125 124 111 93 86 86 86 83 79 84 85 81 77 72 71 70 67 68 68 72 79
41 34 32 30 25 30 18 24 26 16 22 11 29 65 71 74 67 51 42 50 67 78 108 126 126 111 94 85 80 82 82 82 86 85 84 82 79 76 75 74 74 75 82
36 54 37 37 33 34 31 30 23 19 15 26 42 31 35 52 61 76 56 49 60 56 73 105 119 120 116 91 71 69 71 76 82 88 90 89 87 83 82 82 82 82 85
23 29 40 40 42 41 33 34 38 27 12 27 52 59 33 16 7 41 60 59 54 42 55 76 87 91 105 108 88 66 52 53 66 81 91 93 90 91 92 91 93 94 92
39 25 25 27 42 52 47 44 43 41 27 11 41 69 90 62 340 0 30 42 36 43 52 49 76 74 83 89 98 70 57 45 48 67 79 94 98 95 95 98 102 108 110
56 28 19 24 41 45 40 41 45 36 41 22 9 23 65 109 110 24 358 17 30 39 45 47 52 57 69 76 82 76 61 46 39 50 66 79 103 111 102 105 110 120 124
78 46 25 27 43 52 51 51 44 41 40 38 24 13 18 21 44 91 42 359 13 21 43 51 53 51 58 68 76 69 60 47 37 35 50 61 76 107 111 118 133 138 142
94 68 48 37 42 49 48 48 54 48 45 42 37 32 35 34 20 48 78 55 38 5 45 56 58 57 66 63 63 61 56 50 42 38 39 40 41 48 106 150 179 180 184
86 65 60 50 40 35 50 41 44 51 49 48 46 34 33 37 31 35 62 47 43 6 39 46 58 62 69 77 65 51 56 54 44 41 40 37 35 31 23 359 303 231 217
99 97 79 62 44 34 39 41 36 39 45 43 41 41 43 36 35 39 53 57 40 21 34 36 36 49 57 70 44 46 59 59 51 50 48 38 34 29 23 16 8 357 306
108 109 115 113 94 66 44 37 44 38 43 38 35 41 43 40 36 29 39 55 83 67 19 17 34 26 41 66 28 9 91 86 61 49 50 35 18 6 6 9 0 347 331
84 91 106 119 110 98 74 52 45 30 50 50 55 53 42 32 28 27 31 25 42 76 58 357 31 17 19 47 22 13 81 120 78 33 45 30 16 7 1 359 352 333 324
134 121 78 76 81 82 80 65 43 35 33 39 49 62 59 45 31 26 23 26 32 50 56 340 352 7 31 32 6 353 276 189 214 212 181 302 341 360 348 338 339 323 318
89 102 85 70 76 74 76 74 47 40 39 43 44 51 54 53 42 29 22 23 24 34 53 0 341 1 14 17 2 332 340 5 273 207 210 241 255 281 295 302 315 318 309
74 91 103 80 77 73 67 70 65 43 51 51 50 47 42 49 38 26 27 21 12 14 22 18 343 347 357 356 355 337 340 335 330 245 223 240 256 263 271 278 286 298 301
72 50 77 78 70 63 44 32 29 30 47 61 65 60 51 50 37 24 26 14 10 8 4 7 355 348 347 342 6 346 344 340 329 340 340 295 254 252 263 272 271 279 287
90 66 64 66 69 66 43 30 10 19 32 54 71 76 79 76 62 46 35 15 12 11 5 3 352 355 356 1 356 340 346 331 322 336 349 325 303 280 265 268 268 270 273
80 76 76 73 66 63 50 37 21 8 14 35 63 83 97 84 62 44 35 26 20 19 6 359 351 355 346 353 350 350 348 350 326 323 344 315 314 304 288 273 276 274 273
97 89 88 91 91 84 57 34 18 359 4 21 39 53 48 61 53 26 4 355 351 343 351 3 353 336 340 349 351 346 341 326 296 295 326 308 314 308 301 308 298 296 292
129 124 120 122 121 116 81 30 1 340 341 15 47 58 62 52 35 25 4 355 349 349 323 344 312 305 323 321 323 313 304 309 302 309 331 307 312 310 313 313 308 306 298
150 152 150 151 144 132 129 33 0 319 313 54 78 70 72 77 34 23 8 353 354 354 344 336 316 298 298 304 301 340 340 349 328 316 338 340 325 322 312 303 308 315 309
150 147 149 162 151 143 156 133 358 307 321 39 101 95 83 79 46 24 9 360 356 342 340 330 318 302 295 297 296 252 280 342 329 316 340 356 331 337 319 309 329 328 312